Ann Arbor, MI

3:03 PM EDT on May 29, 2017 (GMT -0400)
Ann Arbor Municipal

Weather History for KARB - October, 2012

Change the Weather History Date:

Wednesday, October 31, 2012

  Actual Average Record
Temperature  
Mean Temperature 38 °F -  
Max Temperature 42 °F 54 °F 72 °F (2003)
Min Temperature 35 °F 34 °F 23 °F (2002)
Degree Days  
Heating Degree Days 26    
Moisture  
Dew Point 35 °F    
Average Humidity 89    
Maximum Humidity 93    
Minimum Humidity 81    
Precipitation  
Precipitation 0.00 in - - ()
Sea Level Pressure  
Sea Level Pressure 29.59 in    
Wind  
Wind Speed 14 mph (NW)    
Max Wind Speed 20 mph    
Max Gust Speed 31 mph    
Visibility 8 miles    
Events Rain    
Averages and records for this station are not official NWS values.
T = Trace of Precipitation, MM = Missing Value Source: NWS Daily Summary

Daily Weather History Graph

Daily Weather History Graph

Search for Another Location

Airport or City:

Trip Planner

Search our weather history database for the weather conditions in past years. The results will help you decide how hot, cold, wet, or windy it might be!

Date:

Astronomy

Oct. 31, 2012 Rise Set
Actual Time 8:07 AM EDT 6:29 PM EDT
Civil Twilight 7:38 AM EDT 6:58 PM EDT
Nautical Twilight 7:05 AM EDT 7:31 PM EDT
Astronomical Twilight 6:32 AM EDT 8:03 PM EDT
Moon 7:37 PM EDT (10/31) 9:49 AM EDT (10/31)
Length of Visible Light 11h 19m
Length of Day
10h 21m
Full, 97% of the Moon is Illuminated
Oct 31
Full
Nov 6
Last Quarter
Nov 13
New
Nov 20
First Quarter
Nov 28
Full

Hourly Weather History & Observations

Time (EDT) Temp. Windchill Dew Point Humidity Pressure Visibility Wind Dir Wind Speed Gust Speed Precip Events Conditions
12:53 AM 37.0 °F 28.9 °F 34.0 °F 89% 29.53 in 7.0 mi NNW 12.7 mph 25.3 mph N/A   Overcast
1:53 AM 37.0 °F 27.4 °F 34.0 °F 89% 29.52 in 10.0 mi NNW 17.3 mph 31.1 mph N/A   Overcast
2:35 AM 35.6 °F 27.1 °F 33.8 °F 93% 29.52 in 9.0 mi NNW 12.7 mph 21.9 mph N/A   Overcast
2:53 AM 36.0 °F 26.3 °F 34.0 °F 93% 29.54 in 5.0 mi NNW 16.1 mph 23.0 mph N/A   Overcast
3:05 AM 35.6 °F 27.1 °F 33.8 °F 93% 29.52 in 6.0 mi NNW 12.7 mph 23.0 mph N/A   Overcast
3:53 AM 36.0 °F 27.5 °F 34.0 °F 93% 29.54 in 10.0 mi NNW 12.7 mph 21.9 mph N/A   Overcast
4:53 AM 36.0 °F 26.3 °F 34.0 °F 93% 29.55 in 10.0 mi NW 16.1 mph 21.9 mph N/A   Overcast
5:51 AM 35.6 °F 25.9 °F 33.8 °F 93% 29.54 in 9.0 mi NW 16.1 mph 25.3 mph N/A   Overcast
5:53 AM 36.0 °F 25.3 °F 34.0 °F 93% 29.56 in 9.0 mi NW 19.6 mph 25.3 mph N/A   Overcast
6:19 AM 35.6 °F 27.5 °F 33.8 °F 93% 29.55 in 2.5 mi NW 11.5 mph 23.0 mph 0.00 in   Overcast
6:34 AM 35.6 °F 26.6 °F 33.8 °F 93% 29.55 in 3.0 mi NW 13.8 mph - 0.00 in   Overcast
6:53 AM 36.0 °F 28.0 °F 34.0 °F 93% 29.57 in 3.0 mi NW 11.5 mph 21.9 mph 0.00 in   Overcast
7:24 AM 35.6 °F 27.5 °F 33.8 °F 93% 29.55 in 5.0 mi NW 11.5 mph 21.9 mph 0.00 in   Overcast
7:53 AM 36.0 °F 27.1 °F 34.0 °F 93% 29.57 in 5.0 mi NNW 13.8 mph 23.0 mph 0.00 in   Overcast
8:29 AM 35.6 °F 27.1 °F 33.8 °F 93% 29.56 in 3.0 mi NW 12.7 mph 23.0 mph N/A   Overcast
8:32 AM 35.6 °F 26.2 °F 33.8 °F 93% 29.56 in 4.0 mi NW 15.0 mph 20.7 mph N/A   Overcast
8:39 AM 35.6 °F 27.1 °F 33.8 °F 93% 29.56 in 6.0 mi NW 12.7 mph 23.0 mph N/A   Overcast
8:53 AM 37.0 °F 28.5 °F 34.0 °F 89% 29.59 in 7.0 mi NNW 13.8 mph 20.7 mph N/A   Overcast
9:39 AM 37.4 °F 29.3 °F 35.6 °F 93% 29.58 in 10.0 mi NNW 12.7 mph - N/A   Overcast
9:53 AM 37.0 °F 28.5 °F 35.1 °F 93% 29.60 in 10.0 mi NNW 13.8 mph 19.6 mph N/A   Overcast
10:51 AM 37.4 °F 28.9 °F 35.6 °F 93% 29.58 in 10.0 mi NNW 13.8 mph - N/A   Overcast
10:53 AM 37.9 °F 30.9 °F 35.1 °F 89% 29.60 in 10.0 mi NW 10.4 mph - N/A   Overcast
11:53 AM 39.0 °F 31.0 °F 35.1 °F 86% 29.61 in 10.0 mi NNW 13.8 mph 20.7 mph N/A   Overcast
12:53 PM 39.9 °F 32.9 °F 36.0 °F 86% 29.61 in 10.0 mi NNW 11.5 mph 19.6 mph N/A   Overcast
1:53 PM 41.0 °F 33.5 °F 36.0 °F 82% 29.60 in 10.0 mi NW 13.8 mph 19.6 mph 0.00 in Rain Light Rain
3:13 PM 42.8 °F 36.2 °F 37.4 °F 81% 29.59 in 10.0 mi NW 12.7 mph 21.9 mph N/A   Overcast
3:53 PM 42.1 °F 36.1 °F 37.9 °F 85% 29.61 in 9.0 mi NW 10.4 mph - N/A   Overcast
4:53 PM 42.1 °F 35.7 °F 37.0 °F 82% 29.62 in 10.0 mi WNW 11.5 mph 19.6 mph N/A   Overcast
5:46 PM 41.0 °F 33.1 °F 37.4 °F 87% 29.61 in 10.0 mi NW 15.0 mph 21.9 mph N/A   Overcast
5:53 PM 41.0 °F 33.5 °F 37.0 °F 86% 29.63 in 10.0 mi WNW 13.8 mph 20.7 mph N/A   Overcast
6:53 PM 41.0 °F 33.5 °F 37.0 °F 86% 29.65 in 10.0 mi WNW 13.8 mph 18.4 mph N/A   Overcast
7:02 PM 41.0 °F 34.3 °F 37.4 °F 87% 29.63 in 10.0 mi NW 11.5 mph - N/A   Overcast
7:53 PM 41.0 °F 34.7 °F 37.0 °F 86% 29.66 in 10.0 mi NW 10.4 mph - N/A   Overcast
8:20 PM 41.0 °F 34.7 °F 35.6 °F 81% 29.64 in 10.0 mi NW 10.4 mph 20.7 mph N/A   Overcast
8:53 PM 41.0 °F 34.3 °F 36.0 °F 82% 29.66 in 10.0 mi NW 11.5 mph 17.3 mph N/A   Overcast
9:53 PM 41.0 °F 34.3 °F 36.0 °F 82% 29.68 in 10.0 mi NW 11.5 mph 20.7 mph N/A   Overcast
10:53 PM 41.0 °F 33.5 °F 36.0 °F 82% 29.68 in 10.0 mi NW 13.8 mph 19.6 mph N/A   Overcast
11:33 PM 39.2 °F 30.8 °F 37.4 °F 93% 29.67 in 10.0 mi NW 15.0 mph 23.0 mph N/A   Overcast
11:53 PM 39.9 °F 32.1 °F 37.0 °F 89% 29.68 in 10.0 mi NW 13.8 mph 20.7 mph N/A   Overcast